Retour au catalogue

ONEWEB-0431

ActifCommunicationsPO
NORAD 51630·PAYLOAD·🇬🇧 United Kingdom

Lancé Feb 10, 2022 depuis Guiana Space Centre

Loading…

Prochains Passages (prochaines 24 heures)

TLE

FraisSource: CelesTrak SupGP

Époque: Sep 14, 2026, 21:03 UTC

1 51630C 22012J   26257.87757359 -.00000206  00000+0 -58975-3 0  2578
2 51630  87.8920  18.4098 0001308  84.7680  27.7722 13.10380485    17

Suivez ONEWEB-0431 en temps réel avec AllMySat

Download on the App Store